This is the latest recevied weather packets stored in our database for station/object KF0JHJ. If no packets are shown the sender has not sent any weather packets the latest 10 day(s).
| Time | Temp. | Humidity | Pressure | Rain* | Wind** | Luminosity | Snow |
|---|---|---|---|---|---|---|---|
| 1777999482 | 8.33° C | 48% | 1009.1 hPa | - | - | 187 W/m² | - |
| 1777999180 | 8.89° C | 47% | 1009.2 hPa | - | - | 175 W/m² | - |
| 1777998879 | 8.89° C | 47% | 1009.1 hPa | - | - | 164 W/m² | - |
| 1777998578 | 8.89° C | 45% | 1009.1 hPa | - | - | 139 W/m² | - |
| 1777998273 | 9.44° C | 46% | 1009.1 hPa | - | - | 172 W/m² | - |
| 1777997970 | 8.89° C | 44% | 1008.9 hPa | - | - | 130 W/m² | - |
| 1777997666 | 8.89° C | 44% | 1009 hPa | - | - | 664 W/m² | - |
| 1777997364 | 9.44° C | 44% | 1009.2 hPa | - | - | 184 W/m² | - |
| 1777997062 | 8.89° C | 43% | 1009 hPa | - | - | 126 W/m² | - |
| 1777996758 | 8.89° C | 44% | 1009 hPa | - | - | 433 W/m² | - |
| 1777996455 | 9.44° C | 46% | 1009 hPa | - | - | 113 W/m² | - |
| 1777996152 | 10° C | 43% | 1008.9 hPa | - | - | 595 W/m² | - |
| 1777995848 | 9.44° C | 45% | 1009.2 hPa | - | - | 377 W/m² | - |
| 1777995544 | 8.89° C | 46% | 1008.9 hPa | - | - | 581 W/m² | - |
| 1777995241 | 8.33° C | 47% | 1009.1 hPa | - | - | 363 W/m² | - |
| 1777994938 | 7.78° C | 46% | 1009 hPa | - | - | 73 W/m² | - |
| 1777994636 | 8.89° C | 51% | 1009.1 hPa | - | - | 210 W/m² | - |
| 1777994335 | 8.33° C | 51% | 1009 hPa | - | - | 431 W/m² | - |
| 1777994032 | 8.33° C | 50% | 1008.9 hPa | - | - | 158 W/m² | - |
| 1777993723 | 7.78° C | 49% | 1008.9 hPa | - | - | 93 W/m² | - |
| 1777993421 | 8.89° C | 50% | 1009 hPa | - | - | 86 W/m² | - |
| 1777993115 | 7.78° C | 49% | 1008.9 hPa | - | - | 127 W/m² | - |
| 1777992813 | 7.78° C | 49% | 1008.9 hPa | - | - | 125 W/m² | - |
| 1777992510 | 7.78° C | 51% | 1009 hPa | - | - | 138 W/m² | - |
| 1777992209 | 7.78° C | 51% | 1008.9 hPa | - | - | 73 W/m² | - |
* Rain since midnight (hover to see other rain measurements)
** Current wind speed in m/s (hover to see current wind gust speed)